Time+04,TemperatureF,Dew PointF,Humidity,Sea Level PressureIn,VisibilityMPH,Wind Direction,Wind SpeedMPH,Gust SpeedMPH,PrecipitationIn,Events,Conditions,WindDirDegrees,DateUTC
12:00 AM,89.6,55.4,31,29.62,-9999.0,SSE,4.6,-,N/A,,Clear,160,2013-04-20 20:00:00
1:00 AM,88,55,23,29.63,6,WSW,4.6,,,,Partly Cloudy,240,2013-04-20 21:00:00
1:00 AM,87.8,55.4,33,29.62,-9999.0,WSW,4.6,-,N/A,,Clear,240,2013-04-20 21:00:00
2:00 AM,89.6,50.0,26,29.62,-9999.0,Variable,2.3,-,N/A,,Clear,0,2013-04-20 22:00:00
3:00 AM,89.6,53.6,29,29.59,-9999.0,Variable,3.5,-,N/A,,Clear,0,2013-04-20 23:00:00
4:00 AM,89,53,19,29.59,6,ESE,6.9,,,,Partly Cloudy,120,2013-04-21 00:00:00
4:00 AM,87.8,53.6,31,29.56,-9999.0,ESE,6.9,-,N/A,,Clear,120,2013-04-21 00:00:00
5:00 AM,87.8,53.6,31,29.59,-9999.0,SSE,6.9,-,N/A,,Clear,150,2013-04-21 01:00:00
6:00 AM,86.0,62.6,45,29.59,6.2,South,4.6,-,N/A,Thunderstorm,Thunderstorm,170,2013-04-21 02:00:00
6:11 AM,86.0,59.0,40,29.65,5.0,WSW,11.5,-,N/A,Rain-Thunderstorm,Light Thunderstorms and Rain,250,2013-04-21 02:11:00
6:22 AM,86.0,60.8,43,29.62,5.0,South,5.8,-,N/A,Rain-Thunderstorm,Light Thunderstorms and Rain,190,2013-04-21 02:22:00
7:00 AM,86,58,29,29.62,6,SSE,6.9,,,Thunderstorm,Light Thunderstorm,150,2013-04-21 03:00:00
7:00 AM,86.0,59.0,40,29.59,-9999.0,SSE,6.9,-,N/A,,Clear,150,2013-04-21 03:00:00
8:00 AM,86.0,55.4,35,29.62,5.0,SSE,8.1,-,N/A,,Unknown,160,2013-04-21 04:00:00
9:00 AM,87.8,57.2,35,29.62,5.0,SSE,8.1,-,N/A,,Unknown,150,2013-04-21 05:00:00
10:00 AM,91,56,21,29.68,6,South,5.8,,,,Partly Cloudy,190,2013-04-21 06:00:00
10:00 AM,91.4,55.4,29,29.68,-9999.0,South,5.8,-,N/A,,Clear,190,2013-04-21 06:00:00
11:00 AM,95.0,51.8,23,29.65,-9999.0,Variable,4.6,-,N/A,,Clear,0,2013-04-21 07:00:00
12:00 PM,98.6,46.4,17,29.65,-9999.0,Variable,9.2,-,N/A,,Clear,0,2013-04-21 08:00:00
1:00 PM,98,45,9,29.63,6,West,8.1,,,,Clear,270,2013-04-21 09:00:00
1:00 PM,98.6,44.6,16,29.62,-9999.0,West,8.1,-,N/A,,Clear,270,2013-04-21 09:00:00
2:00 PM,98.6,44.6,16,29.59,-9999.0,WNW,8.1,-,N/A,,Clear,300,2013-04-21 10:00:00
3:00 PM,96.8,46.4,18,29.59,-9999.0,WNW,12.7,-,N/A,,Clear,300,2013-04-21 11:00:00
4:00 PM,92,57,22,29.58,6,NW,13.8,,,,Mostly Cloudy,310,2013-04-21 12:00:00
4:00 PM,91.4,57.2,31,29.56,-9999.0,NW,13.8,-,N/A,,Clear,310,2013-04-21 12:00:00
5:00 PM,93.2,53.6,26,29.56,-9999.0,NNW,10.4,-,N/A,,Clear,330,2013-04-21 13:00:00
6:00 PM,89.6,57.2,33,29.56,-9999.0,NW,8.1,-,N/A,,Clear,310,2013-04-21 14:00:00
7:00 PM,88,59,27,29.59,6,NNW,5.8,,,,Mostly Cloudy,340,2013-04-21 15:00:00
7:00 PM,87.8,59.0,38,29.56,-9999.0,NNW,5.8,-,N/A,,Clear,340,2013-04-21 15:00:00
8:00 PM,87.8,57.2,35,29.59,-9999.0,NW,4.6,-,N/A,,Clear,320,2013-04-21 16:00:00
8:01 PM,87.8,55.4,33,29.65,-9999.0,WSW,11.5,-,N/A,,Clear,250,2013-04-21 16:01:00
9:00 PM,87.8,59.0,38,29.62,-9999.0,NNE,4.6,-,N/A,,Clear,20,2013-04-21 17:00:00
10:00 PM,88,58,26,29.66,6,West,6.9,,,Rain,Light Rain,270,2013-04-21 18:00:00
10:00 PM,87.8,57.2,35,29.65,-9999.0,West,6.9,-,N/A,,Clear,270,2013-04-21 18:00:00
11:00 PM,86.0,62.6,45,29.68,-9999.0,SW,8.1,-,N/A,,Clear,220,2013-04-21 19:00:00